Powrót do katalogu

STARLINK-35915

AktywnyŁącznośćVLEO
NORAD 66521·PAYLOAD·🇺🇸 United States

Wystrzelony Nov 19, 2025 z Cape Canaveral Space Force Station

Loading…

Następne Przeloty (najbliższe 24 godziny)

TLE

ŚwieżeSource: CelesTrak SupGP

Epoka: Sep 14, 2026, 22:58 UTC

1 66521C 25265F   26257.95743056  .00025474  00000+0  92277-3 0  2579
2 66521  43.0000 289.1136 0001201 265.5451 279.5802 15.27562235    13

Śledź STARLINK-35915 w czasie rzeczywistym z AllMySat

Download on the App Store